When you browse on this site, cookies collect data to enhance your experience and personalize the content and advertising you see.
Visit our Privacy Policy to learn more. By continuing to use the site, you agree to this use of cookies and data.
  • En España
  • Lista de países
  • Para 7 días
  • Temperatura del agua
  • El tiempo en el mapa
  • Informadores
  • user-avatar
    Iniciar sesión

    Tiempo cada hora Kaposvár

    Hoy, 31 Mayo, Domingo

    Tiempo Temperatura Precipitaciones Viento Presión Humedad
    00:00 +9°C° 0 mm 3 mps 747 mmHg 80%
    01:00 +9°C° 0 mm 3 mps 747 mmHg 81%
    02:00 +9°C° 0 mm 3 mps 747 mmHg 82%
    03:00 +9°C° 0 mm 3 mps 747 mmHg 83%
    04:00 +7°C° 0 mm 4 mps 747 mmHg 84%
    05:00 +10°C° 0 mm 4 mps 747 mmHg 79%
    06:00 +11°C° 0 mm 4 mps 747 mmHg 74%
    07:00 +13°C° 0 mm 5 mps 747 mmHg 68%
    08:00 +13°C° 0.1 mm 5 mps 746 mmHg 67%
    09:00 +14°C° 0.1 mm 6 mps 746 mmHg 65%
    10:00 +15°C° 0.1 mm 7 mps 746 mmHg 64%
    11:00 +14°C° 0.3 mm 7 mps 746 mmHg 69%
    12:00 +13°C° 0.3 mm 6 mps 746 mmHg 75%
    13:00 +11°C° 0.3 mm 6 mps 746 mmHg 80%
    14:00 +10°C° 0.2 mm 6 mps 746 mmHg 82%
    15:00 +10°C° 0.2 mm 6 mps 746 mmHg 84%
    16:00 +9°C° 0.2 mm 6 mps 746 mmHg 86%
    17:00 +9°C° 0 mm 6 mps 746 mmHg 86%
    18:00 +9°C° 0 mm 6 mps 746 mmHg 86%
    19:00 +9°C° 0 mm 5 mps 746 mmHg 87%
    20:00 +9°C° 0.2 mm 5 mps 746 mmHg 89%
    21:00 +10°C° 0.2 mm 4 mps 746 mmHg 92%
    22:00 +10°C° 0.2 mm 3 mps 746 mmHg 95%
    23:00 +10°C° 0.5 mm 3 mps 746 mmHg 95%

    Mañana, 1 Junio, Lunes

    Tiempo Temperatura Precipitaciones Viento Presión Humedad
    00:00 +10°C° 0.5 mm 3 mps 746 mmHg 95%
    01:00 +11°C° 0.5 mm 3 mps 746 mmHg 96%
    02:00 +11°C° 0.3 mm 3 mps 746 mmHg 96%
    03:00 +12°C° 0.3 mm 2 mps 746 mmHg 96%
    04:00 +12°C° 0.3 mm 2 mps 746 mmHg 96%
    05:00 +11°C° 0 mm 3 mps 746 mmHg 95%
    06:00 +12°C° 0 mm 3 mps 747 mmHg 94%
    07:00 +12°C° 0 mm 4 mps 747 mmHg 92%
    08:00 +13°C° 0 mm 3 mps 747 mmHg 89%
    09:00 +14°C° 0 mm 3 mps 748 mmHg 85%
    10:00 +16°C° 0 mm 3 mps 748 mmHg 82%
    11:00 +17°C° 0.2 mm 3 mps 748 mmHg 75%
    12:00 +19°C° 0.2 mm 3 mps 748 mmHg 69%
    13:00 +20°C° 0.2 mm 3 mps 748 mmHg 62%
    14:00 +20°C° 0.5 mm 3 mps 747 mmHg 65%
    15:00 +20°C° 0.5 mm 3 mps 747 mmHg 68%
    16:00 +20°C° 0.5 mm 4 mps 747 mmHg 71%
    17:00 +19°C° 0.2 mm 3 mps 747 mmHg 74%
    18:00 +17°C° 0.2 mm 3 mps 747 mmHg 77%
    19:00 +16°C° 0.2 mm 2 mps 747 mmHg 80%
    20:00 +14°C° 0 mm 3 mps 747 mmHg 81%
    21:00 +13°C° 0 mm 3 mps 747 mmHg 82%
    22:00 +12°C° 0 mm 3 mps 748 mmHg 83%
    23:00 +11°C° 0 mm 3 mps 748 mmHg 84%

    Pasado mañana, 2 Junio, Martes

    Tiempo Temperatura Precipitaciones Viento Presión Humedad
    00:00 +11°C° 0 mm 3 mps 748 mmHg 85%
    01:00 +10°C° 0 mm 3 mps 748 mmHg 86%
    02:00 +9°C° 0 mm 2 mps 748 mmHg 86%
    03:00 +9°C° 0 mm 2 mps 747 mmHg 86%
    04:00 +8°C° 0 mm 2 mps 747 mmHg 85%
    05:00 +10°C° 0 mm 2 mps 748 mmHg 80%
    06:00 +12°C° 0 mm 2 mps 748 mmHg 75%
    07:00 +14°C° 0 mm 2 mps 748 mmHg 71%
    08:00 +15°C° 0 mm 2 mps 748 mmHg 64%
    09:00 +16°C° 0 mm 2 mps 748 mmHg 57%
    10:00 +18°C° 0 mm 2 mps 748 mmHg 50%
    11:00 +18°C° 0 mm 2 mps 748 mmHg 50%
    12:00 +18°C° 0 mm 2 mps 747 mmHg 50%
    13:00 +19°C° 0 mm 2 mps 747 mmHg 50%
    14:00 +19°C° 0.1 mm 3 mps 746 mmHg 53%
    15:00 +19°C° 0.1 mm 3 mps 746 mmHg 56%
    16:00 +18°C° 0.1 mm 4 mps 745 mmHg 59%
    17:00 +17°C° 0 mm 3 mps 745 mmHg 65%
    18:00 +16°C° 0 mm 3 mps 745 mmHg 70%
    19:00 +15°C° 0 mm 2 mps 745 mmHg 76%
    20:00 +14°C° 0 mm 2 mps 745 mmHg 78%
    21:00 +13°C° 0 mm 2 mps 745 mmHg 80%
    22:00 +12°C° 0 mm 1 mps 745 mmHg 83%
    23:00 +12°C° 0 mm 2 mps 744 mmHg 82%

    3 Junio, Miércoles

    Tiempo Temperatura Precipitaciones Viento Presión Humedad
    00:00 +12°C° 0 mm 2 mps 744 mmHg 82%
    01:00 +12°C° 0 mm 2 mps 744 mmHg 82%
    02:00 +12°C° 0 mm 2 mps 743 mmHg 85%
    03:00 +10°C° 0 mm 2 mps 743 mmHg 88%
    04:00 +9°C° 0 mm 2 mps 743 mmHg 91%
    05:00 +12°C° 0 mm 2 mps 743 mmHg 85%
    06:00 +13°C° 0 mm 3 mps 742 mmHg 79%
    07:00 +14°C° 0 mm 3 mps 742 mmHg 72%
    08:00 +17°C° 0.1 mm 3 mps 742 mmHg 68%
    09:00 +19°C° 0.1 mm 3 mps 742 mmHg 63%
    10:00 +20°C° 0.1 mm 4 mps 742 mmHg 58%
    11:00 +21°C° 0.5 mm 4 mps 742 mmHg 59%
    12:00 +21°C° 0.5 mm 4 mps 741 mmHg 59%
    13:00 +22°C° 0.5 mm 4 mps 741 mmHg 59%
    14:00 +22°C° 0.6 mm 4 mps 741 mmHg 61%
    15:00 +21°C° 0.6 mm 4 mps 741 mmHg 64%
    16:00 +21°C° 0.6 mm 4 mps 740 mmHg 66%
    17:00 +20°C° 0.1 mm 3 mps 740 mmHg 71%
    18:00 +19°C° 0.1 mm 2 mps 740 mmHg 76%
    19:00 +18°C° 0.1 mm 2 mps 740 mmHg 80%
    20:00 +16°C° 0 mm 1 mps 741 mmHg 82%
    21:00 +15°C° 0 mm 1 mps 741 mmHg 84%
    22:00 +14°C° 0 mm 1 mps 742 mmHg 86%
    23:00 +14°C° 0 mm 1 mps 742 mmHg 87%

    4 Junio, Jueves

    Tiempo Temperatura Precipitaciones Viento Presión Humedad
    00:00 +12°C° 0 mm 0 mps 742 mmHg 87%
    01:00 +12°C° 0 mm 0 mps 742 mmHg 88%
    02:00 +13°C° 0 mm 1 mps 742 mmHg 90%
    03:00 +13°C° 0 mm 1 mps 742 mmHg 91%
    04:00 +13°C° 0 mm 1 mps 743 mmHg 92%
    05:00 +14°C° 0 mm 1 mps 743 mmHg 88%
    06:00 +16°C° 0 mm 1 mps 743 mmHg 84%
    07:00 +18°C° 0 mm 1 mps 743 mmHg 80%
    08:00 +19°C° 0 mm 2 mps 743 mmHg 74%
    09:00 +21°C° 0 mm 2 mps 744 mmHg 67%
    10:00 +23°C° 0 mm 2 mps 744 mmHg 61%
    11:00 +24°C° 0.1 mm 2 mps 743 mmHg 59%
    12:00 +25°C° 0.1 mm 2 mps 743 mmHg 57%
    13:00 +25°C° 0.1 mm 2 mps 743 mmHg 56%
    14:00 +26°C° 0.1 mm 2 mps 743 mmHg 56%
    15:00 +26°C° 0.1 mm 2 mps 743 mmHg 56%
    16:00 +26°C° 0.1 mm 2 mps 742 mmHg 56%
    17:00 +25°C° 0.1 mm 2 mps 742 mmHg 62%
    18:00 +23°C° 0.1 mm 2 mps 742 mmHg 69%
    19:00 +21°C° 0.1 mm 2 mps 742 mmHg 76%
    20:00 +20°C° 0 mm 2 mps 742 mmHg 78%
    21:00 +19°C° 0 mm 3 mps 742 mmHg 80%
    22:00 +18°C° 0 mm 3 mps 742 mmHg 83%
    23:00 +17°C° 0 mm 4 mps 742 mmHg 79%

    5 Junio, Viernes

    Tiempo Temperatura Precipitaciones Viento Presión Humedad
    00:00 +17°C° 0 mm 4 mps 742 mmHg 74%
    01:00 +16°C° 0 mm 5 mps 742 mmHg 70%
    02:00 +16°C° 0 mm 5 mps 741 mmHg 71%
    03:00 +16°C° 0 mm 5 mps 741 mmHg 71%
    04:00 +16°C° 0 mm 5 mps 741 mmHg 71%
    05:00 +17°C° 0 mm 6 mps 741 mmHg 70%
    06:00 +19°C° 0 mm 6 mps 741 mmHg 70%
    07:00 +20°C° 0 mm 6 mps 741 mmHg 69%
    08:00 +21°C° 0 mm 6 mps 741 mmHg 68%
    09:00 +22°C° 0 mm 6 mps 742 mmHg 67%
    10:00 +23°C° 0 mm 5 mps 742 mmHg 65%
    11:00 +25°C° 0 mm 5 mps 742 mmHg 63%
    12:00 +26°C° 0 mm 5 mps 741 mmHg 60%
    13:00 +27°C° 0 mm 5 mps 741 mmHg 58%
    14:00 +28°C° 0.1 mm 5 mps 741 mmHg 56%
    15:00 +28°C° 0.1 mm 5 mps 741 mmHg 55%
    16:00 +28°C° 0.1 mm 6 mps 740 mmHg 54%
    17:00 +27°C° 0 mm 5 mps 740 mmHg 58%
    18:00 +25°C° 0 mm 5 mps 740 mmHg 62%
    19:00 +23°C° 0 mm 4 mps 740 mmHg 67%
    20:00 +22°C° 0 mm 4 mps 740 mmHg 65%
    21:00 +21°C° 0 mm 4 mps 741 mmHg 63%
    22:00 +21°C° 0 mm 4 mps 741 mmHg 62%
    23:00 +20°C° 0 mm 4 mps 741 mmHg 64%
    Mostrar más